Weather History for Arlington, WA

Change the Weather History Date:

Monday, January 28, 2013

  Actual Average Record
Temperature  
Mean Temperature 37 °F -  
Max Temperature 39 °F 41 °F 60 °F (1998)
Min Temperature 35 °F 24 °F 21 °F (1979)
Degree Days  
Heating Degree Days 28    
Moisture  
Dew Point 34 °F    
Average Humidity 92    
Maximum Humidity 93    
Minimum Humidity 87    
Precipitation  
Precipitation 0.53 in - - ()
Sea Level Pressure  
Sea Level Pressure 30.05 in    
Wind  
Wind Speed 2 mph (South)    
Max Wind Speed 8 mph    
Max Gust Speed -    
Visibility 8 miles    
Events      
Averages and records for this station are not official NWS values.
T = Trace of Precipitation, MM = Missing Value Source: NWS Daily Summary

Daily Weather History Graph

Daily Weather History Graph

Search for Another Location

Airport:

Trip Planner

Search our weather history database for the weather conditions in past years. The results will help you decide how hot, cold, wet, or windy it might be!

Date:

Astronomy

Jan. 28, 2013 Rise Set
Actual Time 7:41 AM PST 5:02 PM PST
Civil Twilight 7:07 AM PST 5:36 PM PST
Nautical Twilight 6:29 AM PST 6:14 PM PST
Astronomical Twilight 5:53 AM PST 6:50 PM PST
Moon 7:16 PM PST (1/28) 7:58 AM PST (1/28)
Length of Visible Light 10h 28m
Length of Day
9h 21m
Full, 97% of the Moon is Illuminated
Jan 28
Full
Feb 3
Last Quarter
Feb 9
New
Feb 17
First Quarter
Feb 25
Full

Hourly Weather History & Observations

Time (PST) Temp. Windchill Dew Point Humidity Pressure Visibility Wind Dir Wind Speed Gust Speed Precip Events Conditions
12:15 AM 37.4 °F 33.8 °F 35.6 °F 93% 30.01 in 9.0 mi South 4.6 mph - N/A   Overcast
12:35 AM 37.4 °F 32.8 °F 33.8 °F 87% 30.01 in 10.0 mi SSE 5.8 mph - N/A   Overcast
12:55 AM 37.4 °F - 33.8 °F 87% 30.01 in 8.0 mi Calm Calm - 0.01 in   Overcast
1:15 AM 37.4 °F - 33.8 °F 87% 30.01 in 8.0 mi Calm Calm - N/A   Overcast
1:35 AM 37.4 °F 33.8 °F 33.8 °F 87% 30.02 in 10.0 mi SSE 4.6 mph - N/A   Overcast
1:55 AM 37.4 °F - 35.6 °F 93% 30.02 in 10.0 mi Calm Calm - N/A   Overcast
2:15 AM 37.4 °F - 33.8 °F 87% 30.03 in 10.0 mi Calm Calm - N/A   Overcast
2:35 AM 37.4 °F - 35.6 °F 93% 30.03 in 8.0 mi Calm Calm - N/A   Overcast
2:55 AM 37.4 °F - 35.6 °F 93% 30.02 in 10.0 mi Calm Calm - N/A   Overcast
3:15 AM 37.4 °F - 35.6 °F 93% 30.03 in 9.0 mi Calm Calm - N/A   Overcast
3:55 AM 37.4 °F - 35.6 °F 93% 30.03 in 10.0 mi Calm Calm - N/A   Overcast
4:15 AM 37.4 °F - 35.6 °F 93% 30.03 in 10.0 mi Calm Calm - N/A   Overcast
4:35 AM 37.4 °F - 35.6 °F 93% 30.04 in 10.0 mi Calm Calm - N/A   Overcast
4:55 AM 35.6 °F - 33.8 °F 93% 30.04 in 10.0 mi Calm Calm - N/A   Overcast
5:15 AM 35.6 °F - 33.8 °F 93% 30.04 in 8.0 mi Calm Calm - N/A   Overcast
5:35 AM 35.6 °F - 33.8 °F 93% 30.04 in 6.0 mi Calm Calm - N/A   Overcast
5:55 AM 35.6 °F - 33.8 °F 93% 30.05 in 9.0 mi Calm Calm - N/A   Overcast
6:15 AM 35.6 °F - 33.8 °F 93% 30.05 in 9.0 mi Calm Calm - N/A   Overcast
6:35 AM 35.6 °F - 33.8 °F 93% 30.05 in 7.0 mi Calm Calm - N/A   Overcast
6:55 AM 35.6 °F - 33.8 °F 93% 30.06 in 9.0 mi Calm Calm - N/A   Overcast
7:15 AM 35.6 °F - 33.8 °F 93% 30.06 in 10.0 mi Calm Calm - N/A   Overcast
7:35 AM 35.6 °F 29.9 °F 33.8 °F 93% 30.06 in 8.0 mi SSE 6.9 mph - 0.03 in   Overcast
7:55 AM 35.6 °F - 33.8 °F 93% 30.06 in 5.0 mi Calm Calm - 0.05 in   Overcast
8:15 AM 35.6 °F - 33.8 °F 93% 30.06 in 7.0 mi Calm Calm - N/A   Overcast
8:35 AM 35.6 °F - 33.8 °F 93% 30.06 in 8.0 mi Calm Calm - N/A   Overcast
9:15 AM 35.6 °F 30.7 °F 33.8 °F 93% 30.05 in 9.0 mi South 5.8 mph - N/A   Overcast
9:35 AM 37.4 °F - 35.6 °F 93% 30.06 in 10.0 mi Calm Calm - N/A   Overcast
9:55 AM 37.4 °F - 35.6 °F 93% 30.06 in 6.0 mi Calm Calm - N/A   Overcast
10:15 AM 37.4 °F 32.8 °F 35.6 °F 93% 30.06 in 8.0 mi SSW 5.8 mph - 0.01 in   Overcast
10:35 AM 39.2 °F - 35.6 °F 87% 30.07 in 9.0 mi Calm Calm - 0.02 in   Overcast
10:55 AM 39.2 °F 35.9 °F 35.6 °F 87% 30.07 in 10.0 mi SW 4.6 mph - 0.03 in   Overcast
11:15 AM 39.2 °F 33.6 °F 35.6 °F 87% 30.08 in 10.0 mi SW 8.1 mph - N/A   Overcast
11:35 AM 37.4 °F 33.8 °F 35.6 °F 93% 30.08 in 10.0 mi SW 4.6 mph - 0.01 in   Overcast
11:55 AM 37.4 °F - 35.6 °F 93% 30.08 in 10.0 mi Calm Calm - 0.03 in   Overcast
12:15 PM 37.4 °F 33.8 °F 35.6 °F 93% 30.07 in 10.0 mi South 4.6 mph - 0.01 in   Overcast
12:35 PM 37.4 °F - 35.6 °F 93% 30.07 in 10.0 mi Calm Calm - 0.01 in   Overcast
12:55 PM 37.4 °F - 35.6 °F 93% 30.06 in 9.0 mi Calm Calm - 0.02 in   Overcast
1:15 PM 37.4 °F - 35.6 °F 93% 30.07 in 7.0 mi Calm Calm - N/A   Overcast
1:35 PM 35.6 °F - 33.8 °F 93% 30.06 in 8.0 mi Calm Calm - 0.01 in   Overcast
1:55 PM 35.6 °F 29.9 °F 33.8 °F 93% 30.05 in 8.0 mi ESE 6.9 mph - 0.01 in   Overcast
2:15 PM 35.6 °F - 33.8 °F 93% 30.04 in 10.0 mi Calm Calm - 0.01 in   Overcast
2:35 PM 35.6 °F - 33.8 °F 93% 30.04 in 10.0 mi Calm Calm - 0.01 in   Overcast
2:55 PM 35.6 °F - 33.8 °F 93% 30.04 in 10.0 mi Calm Calm - 0.01 in   Overcast
3:15 PM 35.6 °F 32.8 °F 33.8 °F 93% 30.04 in 10.0 mi ESE 3.5 mph - N/A   Overcast
3:35 PM 35.6 °F - 33.8 °F 93% 30.04 in 10.0 mi Calm Calm - N/A   Overcast
3:55 PM 35.6 °F - 33.8 °F 93% 30.03 in 8.0 mi Calm Calm - 0.01 in   Overcast
4:15 PM 35.6 °F - 33.8 °F 93% 30.03 in 8.0 mi Calm Calm - 0.01 in   Overcast
4:35 PM 35.6 °F - 33.8 °F 93% 30.03 in 8.0 mi Calm Calm - 0.01 in   Overcast
4:55 PM 35.6 °F - 33.8 °F 93% 30.03 in 9.0 mi Calm Calm - 0.02 in   Overcast
5:15 PM 37.4 °F - 33.8 °F 87% 30.03 in 10.0 mi Calm Calm - N/A   Overcast
5:35 PM 37.4 °F 33.8 °F 33.8 °F 87% 30.04 in 8.0 mi North 4.6 mph - 0.01 in   Overcast
5:55 PM 35.6 °F - 33.8 °F 93% 30.04 in 8.0 mi Calm Calm - 0.02 in   Overcast
6:15 PM 35.6 °F - 33.8 °F 93% 30.05 in 6.0 mi Calm Calm - 0.02 in   Overcast
6:35 PM 35.6 °F - 33.8 °F 93% 30.04 in 6.0 mi Calm Calm - 0.04 in   Overcast
6:55 PM 35.6 °F 31.7 °F 32.0 °F 87% 30.05 in 5.0 mi North 4.6 mph - 0.05 in   Overcast
7:15 PM 35.6 °F 30.7 °F 33.8 °F 93% 30.05 in 5.0 mi NNW 5.8 mph - 0.02 in   Overcast
7:35 PM 35.6 °F - 33.8 °F 93% 30.05 in 5.0 mi Calm Calm - 0.03 in   Overcast
7:55 PM 35.6 °F - 33.8 °F 93% 30.04 in 5.0 mi Calm Calm - 0.05 in   Overcast
8:15 PM 35.6 °F - 33.8 °F 93% 30.05 in 6.0 mi Calm Calm - N/A   Overcast
8:35 PM 35.6 °F - 33.8 °F 93% 30.06 in 5.0 mi Calm Calm - 0.02 in   Overcast
8:55 PM 35.6 °F - 33.8 °F 93% 30.06 in 3.0 mi Calm Calm - 0.06 in   Overcast
9:15 PM 35.6 °F - 33.8 °F 93% 30.06 in 3.0 mi Calm Calm - 0.01 in   Overcast
9:35 PM 35.6 °F - 33.8 °F 93% 30.07 in 3.0 mi Calm Calm - 0.03 in   Overcast
9:55 PM 35.6 °F - 33.8 °F 93% 30.06 in 3.0 mi Calm Calm - 0.07 in   Overcast
10:15 PM 35.6 °F - 33.8 °F 93% 30.07 in 3.0 mi Calm Calm - 0.03 in   Overcast
10:35 PM 35.6 °F - 33.8 °F 93% 30.08 in 4.0 mi Calm Calm - 0.04 in   Overcast
10:55 PM 37.4 °F - 33.8 °F 87% 30.08 in 5.0 mi Calm Calm - 0.07 in   Overcast
11:15 PM 37.4 °F - 35.6 °F 93% 30.08 in 7.0 mi Calm Calm - 0.01 in   Overcast
11:35 PM 37.4 °F - 35.6 °F 93% 30.09 in 9.0 mi Calm Calm - 0.02 in   Overcast
11:55 PM 37.4 °F - 35.6 °F 93% 30.09 in 10.0 mi Calm Calm - 0.02 in   Overcast